Regional Weather Roundup
Issued by NWS Cleveland, OH

Home | Current Version | Previous Version | Text Only | Print | Product List | Glossary Off
Versions: 1 2 3 4 5 6 7 8 9 10 11 12 13 14 15 16 17 18 19 20 21 22 23 24 25 26 27 28 29 30 31 32 33 34 35 36 37 38 39 40 41 42 43 44 45 46 47 48 49 50

000
ASUS41 KCLE 210410
RWRCLE
OHIO REGIONAL WEATHER ROUNDUP
NATIONAL WEATHER SERVICE WILMINGTON, OH
1200 AM EDT FRI JUL 21 2017

NOTE: "FAIR" INDICATES FEW OR NO CLOUDS BELOW 12,000 FEET WITH NO
SIGNIFICANT WEATHER AND/OR OBSTRUCTIONS TO VISIBILITY.

OHZ001>008-015>018-024>027-034-035-043-044-210500-
   NORTHWEST OHIO

CITY           SKY/WX    TMP DP  RH WIND       PRES   REMARKS
DEFIANCE       MOCLDY   N/A N/A N/A S6        29.95F
FINDLAY        MOCLDY    77  71  82 S5        29.96F
TOLEDO EXPRESS FAIR      72  72 100 CALM      29.95F
TOLEDO EXEC    FAIR      77  73  87 SW3       29.96S
LIMA           FAIR      77  74  90 S7        29.98F
$$

OHZ009>014-019>023-028>033-038-089-210500-
   NORTHEAST OHIO

CITY           SKY/WX    TMP DP  RH WIND       PRES   REMARKS
CLE-HOPKINS    FAIR      78  70  76 SW5       29.98S
CLE-LAKEFRONT  FAIR      77  69  76 SW3       29.95S
CUY CO. ARPT   NOT AVBL
LORAIN-ELYRIA  FAIR      73  67  81 SW5       29.98R
ASHTABULA      FAIR      70  69  97 CALM      29.99R
AKRON-CANTON   MOCLDY    78  70  76 W5        30.00S
WOOSTER        FAIR      73  71  93 W6        30.01R
MANSFIELD      MOCLDY    76  71  85 SW5       30.01S
YOUNGSTOWN     MOCLDY    73  68  84 CALM      30.00R
$$

OHZ042-051>053-060>062-070>072-077>081-210500-
  SOUTHWEST OHIO

CITY           SKY/WX    TMP DP  RH WIND       PRES   REMARKS
CINC-COVINGTON CLOUDY    82  74  76 SW5       30.02S
CINC-LUNKEN    CLOUDY    78  76  93 CALM      30.01S
HAMILTON       FAIR      76  75  97 CALM      30.01S
DAYTON         CLOUDY    80  74  81 SW8       30.01S
WRIGHT-PAT AFB MOCLDY    78  78 100 S3        30.00S
DAYTON GENERAL FAIR      79  73  82 S6        30.01S
WILMINGTON     LGT RAIN  78  77  96 CALM      30.02S
$$

OHZ036-037-039>041-045>050-054>059-063>069-073>076-082>088-210500-
  CENTRAL AND SOUTHEAST OHIO

CITY           SKY/WX    TMP DP  RH WIND       PRES   REMARKS
COLUMBUS       CLOUDY    81  76  84 S6        30.00R
OSU AIRPORT    CLOUDY    81  75  82 S5        30.00S
BOLTON FIELD   CLOUDY    77  76  96 S3        30.01S
RICKENBACK AFB CLOUDY    77  76  95 S5        30.00R
NEWARK         CLOUDY    78  74  87 CALM      30.00S
MARION         MOCLDY    78  71  79 SW8       29.99F
LANCASTER      CLOUDY    76  75  97 CALM      30.01S
ZANESVILLE     CLOUDY    77  72  84 S3        30.01S
NEW PHILLY     FAIR      73  72  96 CALM      30.01R FOG
$$




USA.gov is the U.S. government's official web portal to all federal, state and local government web resources and services.